Погода в Каменищах

Россия / Нижегородская область     55°35′34″N   45°00′49″E
темп.,
°C
ветер,
м/с
пор.,
м/с
влажн.,
%
обл.,
%
осадки,
мм/ч
давл.,
гПа
погр.,
м
9 мая, вс
вс900:00+10ююв41093100 0.0 1009233
03:00+11ююв51384100 0.1 1008409
06:00+11ююв61382100 1.7 1008469
09:00+15ю61274100 1.7 1008716
12:00+16ююв71078100 0.6 1008903
15:00+15ю5985100 4.3 1008732
18:00+15ююз51086100 2.5 1009389
21:00+9зсз3697100 3.0 1012269
10 мая, пн
пн1000:00+9з3596100 0.3 1015358
03:00+8сз4896100 0.8 1017347
06:00+7ссз4895100 0.3 1019376
09:00+7с5895100 1.0 1022474
12:00+7с5994100 1.2 1024416
15:00+8ссв6993100 1.8 1025471
18:00+9ссв5991100 0.1 1026453
21:00+7ссв6119599 0.1 1027335
11 мая, вт
вт1100:00+6ссв41096100 0.0 1027310
03:00+6ссв5119698 0.0 1028286
06:00+7св51292100 0.0 1028325
09:00+12св687998 0.0 1029493
12:00+17всв677099 0.0 1028815
15:00+19всв6767100 0.0 1028934
18:00+18всв597799 0.0 1028409
21:00+13св41190100 0.0 1028195
12 мая, ср
ср1200:00+12всв4119167 0.0 1028217
03:00+12всв411945 0.0 1027202
06:00+13в4108947 0.0 1028244
09:00+19вюв586512 0.0 1028508
12:00+22вюв685279 0.0 10281585
15:00+22вюв595499 0.0 10271925
18:00+19юв496627 0.0 1026343
21:00+15в357697 0.0 102668
13 мая, чт
чт1300:00+14вюв348285 0.0 102648
03:00+13в2281100 0.0 102611
06:00+14в398166 0.0 1025251
09:00+19вюв6115827 0.0 1025633
12:00+21вюв6953100 0.0 10241030
15:00+22юв6953100 0.0 10231927
18:00+16вюв41277100 0.0 1023418
21:00+14вюв4128042 0.0 1022265